Regional Weather Roundup
Issued by NWS

Home | Current Version | Previous Version | Text Only | Print | Product List | Glossary On
Versions: 1 2 3 4 5 6 7 8 9 10 11 12 13 14 15 16 17 18 19 20 21 22 23 24 25 26 27 28 29 30 31 32 33 34 35 36 37 38 39 40 41 42 43 44 45 46 47 48 49 50
000
ASUS43 KLOT 290710
RWRIL

ILLINOIS REGIONAL WEATHER ROUNDUP
NATIONAL WEATHER SERVICE CHICAGO/ROMEOVILLE IL
200 AM CDT TUE JUL 29 2014

NOTE: "FAIR" INDICATES FEW OR NO CLOUDS BELOW 12,000 FEET WITH NO
SIGNIFICANT WEATHER AND/OR OBSTRUCTIONS TO VISIBILITY.

* THESE STATIONS ARE NOT UNDER NWS QUALITY CONTROL. THEY ALSO MAY NOT
  REPORT WEATHER SUCH AS PRECIPITATION OR FOG.

ILZ001-002-007-009-015-016-024-290800-
NORTHWEST ILLINOIS

CITY           SKY/WX    TMP DP  RH WIND       PRES   REMARKS
MOLINE         CLEAR     55  52  89 CALM      30.11F
STERLING*      CLEAR     55  52  88 NW7       30.10S
SAVANNA*       CLEAR     55  53  93 CALM      30.10F
$$

ILZ003-004-008-010-011-017-018-290800-
NORTH CENTRAL ILLINOIS

CITY           SKY/WX    TMP DP  RH WIND       PRES   REMARKS
ROCKFORD       PTCLDY    61  51  70 NW7       30.09S
FREEPORT*      CLEAR     56  52  87 W5        30.11S
ROCHELLE*      CLEAR     56  51  82 CALM      30.08F
DE KALB*       CLEAR     57  52  82 NW7       30.07F
PERU*          CLEAR     56  52  85 W6        30.09S
$$

ILZ005-006-012>014-019>023-290800-
NORTHEAST ILLINOIS

CITY           SKY/WX    TMP DP  RH WIND       PRES   REMARKS
CHICAGO-OHARE  PTCLDY    64  51  62 NW8       30.04F
CHICAGO-MIDWAY PTCLDY    64  53  67 CALM      30.04F
AURORA         MOCLDY    57  53  86 W6        30.06F
LANSING*       MOCLDY    58  52  81 S3        30.04F
JOLIET*        CLEAR     58  52  78 CALM      30.06F
WAUKEGAN       CLEAR     53  50  89 CALM      30.04S
DUPAGE AIRPORT CLEAR     62  53  72 NW7       30.04F
KANKAKEE*      CLEAR     55  52  90 W3        30.06F
WHEELING       CLEAR     61  53  75 CALM      30.05F
MORRIS*        PTCLDY    59  55  87 NW6       30.05F
ROMEOVILLE*    PTCLDY    58  52  82 W7        30.05F
NORTHERLY ISL    N/A     61  53  75 S3          N/A
$$

LMZ740>746-290800-
SOUTHERN LAKE MICHIGAN

STATION/POSITION SKY/WX   TEMP    WIND        PRES    VSBY  WAVE
                          AIR SEA DIR/SP/G                  HT/PER
                          (F)     (DEG/KT/KT) (MB)    (MI)  (FT/S)
SOUTHERN BUOY              60 60  240/  8/  8 1016.9F         2/ 6
WAUKEGAN HARBOR            61     230/  3/  4   N/A
HARRISON CRIB              63     180/  7/  8   N/A
BURNHAM HARBOR             61     170/  3/  4   N/A
CALUMET HARBOR             62     140/  1/  2 1016.1F
MICHIGAN CITY              63     340/  2/  4   N/A
MICHIGAN CITY 6N           64 67  320/  2/  4   N/A           3/ 6
ST. JOSEPH                 62 66   20/  2/  4   N/A           3/ 6
$$

ILZ025>027-034>036-040-047-049-050-058-095>099-290800-
WEST-CENTRAL ILLINOIS

CITY           SKY/WX    TMP DP  RH WIND       PRES   REMARKS
QUINCY         CLEAR     59  55  87 W3        30.13F
GALESBURG*     CLEAR     52  51  97 CALM      30.12F
MACOMB*        CLEAR     52  52  99 W3        30.14S
JACKSONVILLE*  CLEAR     56  54  92 W7        30.13S
PITTSFIELD*    CLEAR     57  53  89 W5        30.14F
$$

ILZ028>032-037-038-041>044-048-051>054-059>061-290800-
CENTRAL ILLINOIS

CITY           SKY/WX    TMP DP  RH WIND       PRES   REMARKS
PONTIAC        CLEAR     55  55 100 W6        30.08S
DECATUR        CLEAR     59  53  80 W6        30.10F
PEORIA         CLEAR     59  52  77 CALM      30.11S
LACON*         CLEAR     54  50  89 CALM      30.09S
LINCOLN*       CLEAR     59  54  81 CALM      30.09S
SPRINGFIELD    CLEAR     54  52  93 CALM      30.12S
TAYLORVILLE    CLEAR     50  50 100 CALM      30.11F
$$

ILZ033-039-045-046-055>057-062-063-290800-
EAST-CENTRAL ILLINOIS

CITY           SKY/WX    TMP DP  RH WIND       PRES   REMARKS
CHAMPAIGN      CLEAR     54  52  93 W7        30.08F
DANVILLE*      CLEAR     50  50  99 CALM      30.05S
RANTOUL*       CLEAR     55  51  85 W6        30.08F
MATTOON        CLEAR     55  50  83 W6        30.08F
PARIS*         CLEAR     49  49  97 CALM      30.09F
$$

ILZ079-100>102-290800-
SOUTHWEST ILLINOIS

CITY           SKY/WX    TMP DP  RH WIND       PRES   REMARKS
ALTON          CLEAR     55  55 100 CALM      30.13S
BELLEVILLE     CLEAR     58  54  85 NW2       30.11S
CAHOKIA*       CLEAR     56  53  90 CALM      30.12F
SPARTA*        CLEAR     59  54  82 CALM      30.13R
$$

ILZ064>066-069>071-074>076-080>082-084>086-088>090-092>094-290800-
SOUTH-CENTRAL ILLINOIS

CITY           SKY/WX    TMP DP  RH WIND       PRES   REMARKS
CARBONDALE     CLEAR     59  55  87 N5        30.11R
CAIRO*         CLEAR     64  57  79 CALM      30.10S
EFFINGHAM*     CLEAR     54  51  89 CALM      30.10S
MARION         CLEAR     57  55  94 CALM      30.11S
MT. VERNON     CLEAR     54  48  82 CALM      30.11S
CENTRALIA*     CLEAR     51  49  93 CALM      30.11R
SALEM*         CLEAR    N/A N/A N/A CALM      30.11S
METROPOLIS*    CLEAR     60  53  77 CALM      30.09R
$$

ILZ067-068-072-073-078-083-087-091-290800-
SOUTHEAST ILLINOIS

CITY           SKY/WX    TMP DP  RH WIND       PRES   REMARKS
LAWRENCEVILLE  CLEAR     55  52  89 NW5       30.08F
FLORA*         CLEAR     54  52  94 CALM      30.10S
FAIRFIELD*     CLEAR     55  54  94 CALM      30.09S
HARRISBURG*    CLEAR     56  55  97 NW3       30.10S
ROBINSON*      CLEAR     52  51  97 CALM      30.09F
CARMI*         CLEAR     57  55  94 CALM      30.08S
$$

ABBREVIATIONS USED IN REMARKS
   TC - TEMPERATURE IN CELSIUS
  WCI - WIND CHILL INDEX
   HX - HEAT INDEX
  VSB - VISIBILITY
$$



USA.gov is the U.S. government's official web portal to all federal, state and local government web resources and services.